GEFSNE_500_meanwind_186.txt.gz
Wind_Speed
45 45 46 47 47 48 48 48 48 48 48 49 49 50 51 51 51 52 54 54 55 55 56 57 57 58 58 58 59 59 60 60 61 61 61 62 63 64
45 45 47 48 48 48 49 49 49 49 49 50 51 51 52 54 54 54 55 55 56 57 57 58 59 60 60 60 61 61 62 62 63 63 64 65 65 66
46 46 47 47 49 49 50 50 50 50 50 50 51 52 53 54 55 55 56 56 57 58 59 60 60 61 62 62 63 63 64 65 65 66 67 67 68 69
47 47 47 48 49 50 50 50 51 51 51 52 53 54 54 55 56 56 57 57 58 59 60 60 61 62 62 63 64 65 66 67 68 69 69 69 69 68
46 47 48 49 49 50 50 51 52 53 53 53 53 54 55 57 57 58 58 58 59 60 61 61 62 63 63 64 65 66 67 69 69 70 70 69 68 66
46 47 48 49 49 51 52 53 53 54 54 54 53 54 55 56 57 58 59 59 60 60 61 62 62 63 64 65 66 68 68 69 69 69 68 67 65 63
47 48 48 49 50 51 52 53 54 54 54 54 54 54 55 56 57 59 59 59 59 60 61 61 62 63 65 66 67 67 68 68 67 66 64 63 61 60
47 48 49 49 50 51 52 53 53 53 54 54 54 55 55 57 58 58 59 59 59 60 61 61 63 64 65 66 66 66 65 64 63 62 61 60 59 58
47 48 49 49 50 51 52 52 52 53 53 54 55 55 56 57 58 58 59 59 60 61 62 62 62 63 64 64 64 63 63 61 60 59 58 57 57 57
48 49 49 49 50 51 51 51 52 52 53 55 55 56 56 57 58 58 58 59 59 60 62 62 62 62 61 61 61 60 59 58 57 56 55 54 54 53
48 49 49 50 50 50 51 51 52 52 53 54 54 55 56 57 59 59 59 60 59 59 60 61 60 59 59 58 57 56 56 55 54 53 52 51 51 50
48 49 49 50 50 51 51 52 52 52 53 53 53 55 56 57 58 59 59 60 59 58 57 58 58 57 56 54 54 54 53 51 51 50 49 49 48 46
49 49 49 49 50 51 52 52 52 52 52 53 54 55 56 57 57 58 59 59 58 57 56 56 55 54 53 51 49 49 48 47 47 46 46 45 45 44
48 48 48 49 49 50 51 52 52 53 53 53 54 55 56 57 57 57 58 57 57 56 55 54 53 52 51 49 47 46 45 45 44 44 43 43 43 42
47 47 48 48 49 50 50 51 52 53 53 54 55 56 56 56 56 56 56 55 54 53 53 52 51 50 50 48 46 44 43 42 42 42 42 42 41 41
48 48 48 48 49 50 50 50 51 53 54 54 55 56 56 55 55 54 54 53 52 50 50 50 50 48 47 46 44 42 42 41 40 40 39 39 39 39
49 49 48 48 48 49 50 51 51 52 53 54 54 54 54 53 52 51 51 50 49 48 47 47 47 46 45 44 42 41 40 39 38 38 38 37 36 35
49 48 48 49 49 49 50 50 51 51 52 52 52 52 51 49 48 48 48 47 46 45 44 43 43 43 42 40 40 39 38 36 36 37 36 34 33 32
48 48 48 48 48 48 49 50 50 50 50 50 49 48 46 45 45 44 44 43 42 42 41 40 40 39 38 36 35 36 36 35 35 34 33 32 31 30
47 47 47 47 47 47 48 48 47 47 47 46 45 43 42 42 41 40 39 39 39 38 37 37 37 37 36 35 33 33 34 34 33 32 31 30 29 28
45 45 45 45 45 45 45 45 45 44 43 42 40 40 39 39 38 37 36 35 35 35 34 34 34 34 34 33 33 31 32 32 32 31 29 27 26 25
43 43 43 43 43 43 43 42 42 40 39 38 37 37 36 35 34 33 33 32 33 33 32 32 32 32 32 32 31 30 30 29 29 28 27 25 24 23
41 41 41 41 41 41 40 39 37 36 35 35 34 33 33 32 32 31 31 31 31 31 31 31 31 30 30 29 28 28 27 27 27 26 25 23 22 21

GEFSNE_500_meanwind_192.txt.gz
Wind_Speed
43 44 46 46 47 47 47 48 49 49 50 50 50 51 51 51 51 51 51 51 52 52 53 54 54 55 57 57 57 58 58 58 59 59 60 60 60 60
44 45 45 46 46 46 47 48 49 50 50 50 51 51 51 51 51 52 53 53 54 54 55 56 58 58 59 59 60 60 60 61 61 61 61 61 61 61
44 45 46 47 47 47 48 48 49 50 51 50 51 51 51 51 51 52 54 55 56 57 58 59 60 60 60 60 61 62 62 62 62 62 63 63 64 64
44 46 48 49 49 48 48 48 49 50 50 50 51 51 51 51 52 53 54 55 57 58 59 60 61 61 61 62 62 62 63 63 63 64 64 65 66 66
45 46 49 50 49 49 49 49 49 50 50 50 51 52 52 53 54 54 55 56 57 58 59 60 60 61 62 62 62 63 63 64 64 65 65 66 67 67
46 47 49 49 49 49 49 49 50 50 50 51 52 53 54 55 55 55 56 56 57 58 59 59 60 60 61 62 62 63 63 64 65 66 66 67 67 68
47 47 48 48 48 49 49 50 51 52 52 53 53 53 55 55 56 56 56 56 57 57 58 58 59 59 60 60 62 63 64 65 66 66 66 66 66 67
47 47 47 48 49 49 50 50 51 53 54 54 54 54 55 56 56 56 56 56 56 56 57 57 58 59 60 61 63 64 65 65 65 65 65 65 65 64
45 46 46 48 49 50 51 52 53 53 54 54 54 54 55 55 55 55 55 55 56 57 58 57 58 59 61 62 63 64 65 64 64 63 63 63 62 61
45 46 47 48 50 51 52 53 53 53 53 54 54 54 54 53 54 55 55 56 56 57 58 58 59 60 61 62 63 63 63 62 61 61 60 59 59 58
47 47 48 49 50 51 52 52 52 52 53 53 53 53 53 53 54 55 55 56 56 57 58 59 60 60 60 60 60 60 59 58 57 57 56 57 57 56
46 47 48 49 50 50 51 51 50 51 52 52 52 53 53 54 55 55 56 57 57 57 58 60 60 60 58 56 56 56 56 55 54 54 55 55 55 53
47 47 48 48 49 49 50 50 50 51 51 51 52 52 53 53 54 55 56 57 57 58 58 59 58 58 56 54 53 53 53 53 52 52 53 53 52 50
47 48 48 48 48 49 49 49 50 51 51 51 51 52 52 52 54 55 56 57 58 59 59 58 56 55 53 52 50 50 50 50 50 50 50 49 48 47
47 47 48 48 48 49 49 50 50 51 51 51 51 51 52 53 54 55 56 57 58 57 57 55 54 53 52 50 49 48 48 48 48 48 47 46 45 45
47 48 48 49 49 49 49 50 50 50 50 51 51 51 52 53 53 54 55 55 55 54 53 52 51 50 49 48 47 47 47 47 46 46 45 44 44 43
48 48 48 49 49 49 49 49 49 50 50 50 51 51 52 52 52 53 54 53 52 50 49 48 48 48 47 46 45 45 45 45 45 44 43 41 40 39
48 48 48 48 48 48 49 49 49 49 50 50 50 51 51 51 51 51 50 49 48 46 45 45 44 44 43 43 44 44 43 43 42 41 39 38 37 36
47 47 47 48 48 48 48 48 48 49 49 49 49 49 49 49 48 47 46 45 44 42 41 41 41 41 41 40 40 41 41 40 39 37 36 35 34 33
47 47 47 47 47 47 47 47 47 48 48 48 47 47 46 45 44 43 42 41 40 39 39 38 38 38 38 37 37 37 38 36 35 34 34 33 32 32
45 45 45 45 45 45 46 46 46 45 45 45 44 43 42 41 40 39 38 38 37 37 36 36 35 35 35 35 35 34 34 34 33 33 32 31 30 30
42 42 42 42 43 43 43 44 44 43 43 42 41 40 39 38 37 37 36 36 35 35 34 33 33 33 33 34 33 33 32 32 31 30 29 29 29 27
40 40 40 40 41 41 41 41 41 40 40 39 37 37 36 36 36 35 34 34 33 32 32 31 32 32 32 32 31 30 30 29 28 27 27 27 26 24

GEFSNE_500_meanwind_198.txt.gz
Wind_Speed
38 40 42 43 43 45 44 44 46 46 46 46 46 46 47 47 46 47 48 49 50 51 52 52 52 53 53 53 54 54 55 55 56 56 57 57 57 58
41 41 43 44 45 46 46 47 47 47 47 47 48 48 48 49 49 49 50 51 51 52 53 53 54 55 55 56 57 57 57 58 58 59 59 59 60 60
45 45 45 45 47 47 47 47 47 48 49 49 49 50 50 51 50 51 52 52 53 53 54 54 54 55 56 57 58 58 59 59 60 60 61 61 62 62
46 46 46 46 46 46 46 47 48 49 49 50 51 51 52 52 53 53 53 53 54 54 54 54 55 56 57 58 58 59 60 60 61 62 62 63 64 64
46 47 47 47 47 47 48 48 49 49 49 50 50 50 51 52 53 54 54 54 54 55 55 56 57 58 59 59 59 59 60 61 62 63 63 64 64 65
47 47 47 48 48 48 49 49 49 50 51 51 51 51 52 53 54 54 55 54 55 56 56 57 58 58 59 59 60 60 61 62 63 63 63 64 64 64
47 47 48 48 48 49 49 49 50 50 51 52 52 53 54 54 55 55 55 55 56 56 57 58 58 58 59 59 60 61 62 62 62 63 63 63 63 63
46 47 48 48 49 50 50 50 50 51 51 51 52 52 53 54 55 55 56 56 57 57 58 59 59 59 59 60 60 61 62 62 63 63 63 63 63 64
47 47 47 48 49 49 49 49 49 50 51 51 52 52 53 54 55 55 56 57 57 58 59 58 59 59 59 60 60 60 61 63 63 62 63 63 63 62
47 47 47 47 48 48 48 48 48 49 50 51 52 53 54 55 55 56 57 57 58 58 59 59 58 58 59 59 60 61 62 62 62 63 63 61 60 59
46 46 46 46 47 47 48 48 48 49 50 51 52 54 54 55 56 57 57 57 57 58 58 57 57 58 58 58 59 61 62 62 61 60 59 58 57 56
44 45 45 46 47 47 48 49 49 50 52 52 53 54 54 54 55 56 56 56 56 56 56 57 58 59 59 58 59 60 60 60 59 57 56 55 55 54
44 45 46 46 47 48 49 49 50 51 52 52 53 53 53 54 54 55 55 55 55 55 56 57 58 59 60 59 58 58 57 56 55 54 54 54 53 52
44 45 46 47 48 49 50 50 50 51 51 51 52 52 53 53 54 54 54 54 55 55 56 57 57 58 58 57 55 53 53 53 52 52 52 52 51 51
45 46 47 48 48 49 49 50 50 50 51 51 52 53 54 54 54 54 54 54 55 55 56 56 56 56 56 54 51 50 50 50 50 50 49 49 49 49
46 47 47 48 48 48 49 50 50 51 51 51 52 53 54 53 52 52 53 54 54 53 53 54 54 53 51 50 48 48 48 48 47 47 47 46 47 46
46 46 47 47 48 48 49 50 51 51 52 52 52 52 51 51 51 51 52 52 52 52 51 51 50 49 48 47 46 46 46 46 45 45 45 44 44 44
45 46 47 48 48 49 49 50 51 51 51 51 50 50 50 50 50 50 50 50 50 49 48 47 47 46 45 45 45 45 45 45 44 44 44 43 42 42
44 44 46 47 48 48 49 49 49 49 49 49 49 49 49 49 49 48 48 47 46 45 44 44 44 44 43 43 43 44 44 43 43 43 42 42 41 40
42 43 44 45 45 46 46 46 46 46 46 46 46 46 46 46 46 45 44 43 42 42 42 42 43 43 43 42 40 41 42 41 40 40 40 39 38 37
41 42 42 42 42 42 43 43 43 43 43 43 43 43 42 42 42 41 41 41 40 40 40 41 41 41 40 39 38 38 38 38 38 38 37 37 35 34
40 39 39 39 40 40 40 40 40 39 39 39 39 39 39 38 38 38 38 38 38 38 38 38 37 37 36 36 36 35 35 36 36 36 35 33 32 30
37 36 36 36 37 37 37 36 36 36 36 36 36 35 35 36 36 35 35 35 35 35 35 35 34 35 34 34 34 34 33 33 33 32 31 29 28 27

GEFSNE_500_meanwind_204.txt.gz
Wind_Speed
44 44 44 43 42 42 43 43 44 45 45 46 46 46 47 47 48 49 49 49 48 48 49 49 49 49 49 50 51 51 52 52 52 53 53 53 53 54
43 44 45 45 45 44 44 44 44 46 47 46 47 48 48 49 49 49 49 49 49 48 49 50 49 49 50 51 52 52 52 53 53 54 54 55 55 55
43 44 45 45 45 44 44 44 44 46 48 48 49 50 50 49 49 49 49 49 49 50 50 50 49 50 51 52 53 53 53 54 54 55 56 56 57 57
43 43 43 44 45 45 45 45 45 46 48 48 49 49 49 50 50 50 50 50 51 51 52 51 51 52 53 53 54 54 55 55 55 57 57 58 58 59
43 44 44 44 46 47 47 47 47 47 48 49 49 49 50 50 50 51 52 52 52 52 53 53 53 54 54 55 55 55 56 56 57 58 59 60 60 61
44 44 44 45 46 46 47 48 48 48 49 49 50 51 51 51 52 52 53 53 52 53 54 54 55 55 55 56 56 57 58 59 59 60 60 61 61 61
45 45 46 46 47 48 48 49 50 49 50 51 51 53 53 53 53 53 54 53 53 55 55 54 55 55 56 56 57 58 59 60 60 61 61 62 62 62
47 47 48 49 49 49 49 50 51 51 52 53 53 53 53 53 54 54 54 54 54 54 55 54 55 55 56 56 57 59 60 61 62 62 62 62 63 63
47 48 48 49 50 50 49 50 51 51 51 52 52 52 53 53 54 54 54 55 54 54 55 55 55 56 57 58 58 59 60 61 61 61 62 62 62 62
47 48 49 49 49 50 50 51 51 52 52 52 52 53 53 54 54 54 54 54 54 55 56 56 56 57 57 58 59 59 60 60 60 61 62 62 62 61
47 48 49 49 49 50 50 51 52 53 52 52 52 52 52 52 53 54 54 54 54 54 56 57 57 57 57 58 58 59 60 60 60 60 60 61 60 59
47 47 48 48 49 49 49 50 51 52 52 52 51 51 51 51 52 52 53 54 54 54 55 56 57 58 58 57 57 58 58 58 59 59 58 58 57 57
45 45 46 47 48 48 49 49 49 50 50 50 50 50 50 50 51 52 53 54 54 54 55 56 57 57 57 56 56 57 57 57 57 57 56 56 56 55
44 45 45 46 46 46 47 47 48 48 48 48 48 49 50 50 51 51 53 54 54 55 56 56 56 56 56 56 56 56 56 56 55 54 54 53 54 54
44 44 44 45 45 45 46 47 47 47 47 48 48 48 49 50 51 52 53 54 55 55 55 55 55 55 56 55 55 54 54 53 53 53 52 51 51 51
43 43 44 44 45 45 46 46 46 46 47 47 48 48 49 51 52 53 53 53 53 53 54 54 54 54 53 53 53 53 52 51 51 51 50 50 50 49
43 43 44 44 44 44 44 45 46 46 47 48 49 49 50 51 51 51 51 51 51 51 51 51 51 51 51 51 51 51 50 49 49 49 48 48 47 47
42 42 43 43 43 43 43 44 45 46 48 49 49 50 50 49 49 49 49 49 48 49 49 49 50 49 49 49 49 48 48 47 46 45 45 44 43 43
40 41 41 41 41 41 42 43 44 45 46 47 47 46 46 47 47 47 47 46 46 47 47 48 48 48 47 46 45 45 45 44 43 42 41 41 40 40
38 39 39 39 39 40 40 40 41 42 43 43 43 43 44 44 44 44 45 45 45 45 45 45 45 45 44 43 42 42 42 41 40 39 39 39 38 38
37 37 37 37 37 37 38 39 40 40 40 40 40 40 41 41 41 42 42 43 43 42 42 42 42 42 41 40 39 38 39 38 38 37 37 37 37 37
36 36 36 36 35 36 36 36 36 36 36 37 37 37 38 38 38 39 39 39 39 39 39 39 38 38 37 37 37 36 36 36 37 37 37 37 36 35
33 33 33 33 33 32 32 32 33 33 34 34 35 35 36 35 36 36 36 35 35 35 35 35 34 34 34 34 34 34 35 35 36 35 35 35 33 32

GEFSNE_500_meanwind_210.txt.gz
Wind_Speed
43 44 44 44 44 45 45 45 46 45 45 46 46 46 46 47 46 46 47 48 48 48 49 49 48 48 48 49 48 48 49 49 48 48 49 49 50 50
43 43 45 45 45 45 45 46 46 45 45 45 46 46 46 47 47 48 48 48 48 49 50 50 49 48 49 49 49 49 49 49 49 49 50 50 50 51
44 44 45 45 45 45 45 45 45 45 44 44 45 46 47 47 48 48 48 50 51 51 50 50 50 49 49 49 49 49 49 49 50 50 50 51 51 51
43 43 44 44 44 45 45 45 45 45 45 45 46 47 47 47 47 48 49 49 50 50 49 49 49 49 49 49 49 50 51 51 51 52 52 52 52 52
42 42 43 43 44 44 44 44 44 45 45 46 47 47 47 47 47 48 49 49 49 49 49 49 50 50 50 51 52 52 52 52 53 53 53 53 54 54
43 43 43 43 44 44 45 46 45 45 45 46 47 47 48 48 49 49 50 50 50 50 51 52 52 52 53 53 54 55 55 54 55 55 55 56 56 56
43 43 44 44 44 45 45 46 47 47 47 47 47 48 49 49 49 50 50 51 52 51 52 52 53 53 54 54 55 55 55 55 55 56 57 57 57 58
41 42 43 43 44 45 46 46 47 48 49 49 48 48 49 49 50 51 52 53 52 53 53 53 54 55 56 56 56 56 57 57 57 57 58 58 58 59
41 41 43 44 45 46 46 46 47 48 49 49 49 49 49 50 51 51 52 53 53 54 55 55 56 56 56 55 55 56 56 56 57 58 58 59 59 59
42 42 43 44 45 46 46 46 46 47 47 48 49 49 50 51 52 52 52 54 55 55 55 55 54 54 54 54 54 55 55 56 56 57 58 58 58 59
42 43 43 44 45 46 46 47 47 47 47 48 49 49 50 52 52 52 52 53 54 53 53 53 52 52 52 53 53 54 55 56 56 57 57 57 58 59
43 43 44 44 45 46 47 48 48 48 49 49 50 51 52 52 52 51 51 51 51 50 50 51 51 52 52 52 53 54 55 55 55 55 57 58 58 59
43 44 44 45 45 46 47 48 49 50 51 51 51 51 51 51 50 49 48 49 49 49 50 51 52 52 52 51 51 52 53 53 53 54 55 56 57 57
43 43 43 44 45 47 48 48 49 50 50 50 50 49 49 49 48 48 48 49 49 49 50 50 51 51 51 50 49 50 51 52 53 54 55 56 56 56
41 42 42 43 44 45 46 47 47 48 48 48 48 48 48 48 48 48 49 49 49 49 49 49 50 50 50 50 49 49 50 51 53 54 55 54 54 55
40 41 42 42 43 43 43 44 45 46 47 48 48 47 47 47 47 47 47 47 48 48 49 50 50 50 50 49 49 49 50 51 52 53 54 53 53 53
40 40 41 41 41 41 42 43 44 45 45 46 46 45 45 46 45 46 46 47 48 48 48 48 49 49 49 50 50 49 49 50 51 51 51 51 50 50
38 38 39 39 40 40 41 41 42 42 42 43 42 42 42 42 43 44 45 46 46 47 47 46 47 47 48 49 49 49 49 49 49 48 47 47 46 46
37 37 37 38 38 39 40 40 40 40 40 40 39 39 40 40 41 42 42 43 43 44 44 44 45 46 47 48 48 49 48 46 45 44 43 43 42 41
36 36 36 37 37 38 38 38 39 39 38 39 39 39 39 40 40 41 41 41 41 41 41 42 43 44 45 45 45 45 45 44 42 40 39 38 38 37
35 35 36 36 36 36 36 36 37 37 38 38 38 38 38 37 38 38 39 39 39 39 39 40 40 41 41 42 41 40 40 41 39 38 37 36 35 35
35 35 36 36 36 35 35 35 35 36 36 37 37 37 36 36 37 37 37 37 37 37 37 38 38 38 38 38 37 36 36 36 36 37 37 35 34 33
35 35 36 36 36 35 35 36 36 35 35 35 35 34 34 34 35 35 35 35 35 35 36 36 36 36 36 35 34 34 33 33 34 34 35 35 34 34

GEFSNE_500_meanwind_216.txt.gz
Wind_Speed
42 42 42 43 44 44 45 46 47 47 47 47 47 48 49 49 50 50 50 50 50 50 50 50 50 50 49 50 50 51 51 51 51 51 51 50 50 50
43 43 43 43 43 45 46 47 48 48 49 48 48 48 48 48 48 49 50 50 50 49 50 50 49 49 50 50 51 51 52 51 51 51 51 51 51 51
43 44 44 44 44 45 46 47 47 48 48 48 49 48 48 48 48 49 49 50 51 51 50 50 50 51 51 51 51 51 51 51 51 51 51 51 52 51
43 43 44 45 45 45 46 47 47 47 48 48 48 49 49 49 49 50 50 51 51 51 51 51 52 53 53 53 52 52 52 52 52 52 52 52 52 52
43 44 44 44 45 46 46 46 46 46 47 48 48 48 49 50 50 51 50 51 52 52 52 52 52 53 53 54 53 52 53 53 53 54 54 53 54 54
43 43 44 45 45 46 46 46 46 46 46 46 47 47 48 48 49 50 50 51 52 52 52 52 53 53 53 54 54 54 54 54 54 55 55 55 55 55
43 44 44 45 46 46 47 47 47 47 46 46 46 46 47 47 48 49 50 51 52 52 52 53 54 54 54 55 55 56 56 56 56 55 55 56 56 56
43 44 44 45 46 46 46 46 46 46 45 45 45 45 46 47 48 49 49 50 50 51 52 52 53 54 54 54 55 56 56 56 56 57 57 57 56 56
43 43 44 45 45 45 45 45 46 46 47 46 46 46 46 46 48 49 49 49 49 50 52 52 53 53 53 53 54 55 56 56 57 57 57 57 58 57
42 43 43 43 44 44 45 45 46 47 47 47 47 47 47 47 47 48 49 49 50 51 52 52 53 53 53 54 53 54 54 55 55 55 56 56 56 56
41 42 43 43 43 44 45 45 46 46 47 47 47 47 48 49 49 50 50 50 50 51 52 52 52 53 52 52 53 53 54 54 54 55 55 55 55 54
41 42 43 44 44 44 45 45 46 46 46 47 48 48 48 49 49 50 51 51 52 51 52 52 52 53 53 52 53 53 54 54 55 55 55 54 54 53
41 41 42 43 44 44 45 45 45 45 45 46 47 48 48 49 49 50 51 52 52 51 51 52 52 53 53 53 53 54 54 54 55 54 53 52 52 52
41 41 41 42 43 44 44 44 45 45 46 47 47 48 49 49 50 50 50 51 51 51 51 51 51 52 53 53 53 54 54 53 52 51 51 52 53 53
40 40 41 41 42 43 43 44 45 46 46 47 46 47 48 48 49 49 50 51 51 51 50 50 50 51 52 52 52 52 52 51 50 50 51 51 52 53
40 40 40 41 42 43 43 43 44 44 44 44 45 46 47 48 48 48 48 48 48 48 48 48 49 49 49 50 50 51 51 51 51 51 51 51 52 53
40 40 41 41 42 42 43 43 43 43 42 43 43 44 45 45 46 46 46 46 46 46 45 46 47 47 47 48 48 49 49 50 51 51 51 51 52 53
39 40 40 41 41 42 42 42 42 41 41 41 42 43 43 44 44 45 45 45 45 44 44 44 44 45 46 47 48 48 49 50 50 51 51 51 51 51
38 38 39 40 40 40 40 40 40 40 40 40 41 41 42 42 43 43 42 42 42 41 42 42 43 43 44 44 44 45 46 47 48 49 50 50 49 48
37 37 38 38 38 38 37 38 38 39 39 40 40 41 41 41 41 40 40 40 40 40 40 40 41 41 41 41 42 43 44 45 46 46 47 47 46 44
36 37 37 37 37 37 37 37 37 38 39 39 40 40 40 40 39 38 38 37 37 38 38 38 39 39 39 40 40 40 41 43 43 43 43 43 42 40
35 35 36 36 36 36 37 38 38 38 38 39 39 39 39 39 38 38 36 36 36 37 37 38 38 39 39 39 39 39 39 40 39 39 40 39 39 38
34 34 35 35 35 36 36 36 37 38 38 38 38 38 38 37 36 36 35 35 35 35 35 35 36 37 37 38 37 37 37 37 36 35 35 35 35 35

GEFSNE_500_meanwind_222.txt.gz
Wind_Speed
42 42 43 43 43 44 44 45 45 45 45 45 46 47 47 47 48 48 49 49 50 50 51 51 51 51 51 50 50 50 50 49 50 50 50 49 48 48
42 43 43 43 44 45 46 45 46 47 47 46 47 48 49 49 49 49 50 50 50 51 51 51 50 50 50 50 50 50 51 51 51 51 50 49 48 48
42 43 43 44 45 46 46 46 47 47 47 47 47 48 49 49 49 50 51 51 51 51 51 51 51 50 51 51 51 51 51 51 51 51 50 49 49 49
42 43 44 44 45 45 46 46 46 47 47 47 47 48 48 49 49 49 50 51 51 51 51 52 52 52 52 52 51 52 52 52 51 51 51 51 50 50
41 42 42 43 44 44 44 45 46 46 46 46 46 47 47 48 48 48 48 49 50 51 51 52 52 53 53 53 52 52 52 52 52 52 52 52 51 51
40 41 42 42 42 44 44 45 46 46 46 46 46 46 47 47 48 48 49 50 50 50 50 51 52 52 52 53 52 52 52 52 53 53 54 53 53 52
40 41 42 43 43 44 45 46 46 46 46 46 46 47 47 48 48 49 49 49 49 49 50 50 50 51 52 52 52 52 52 52 53 54 54 54 54 54
40 41 42 43 44 45 45 45 46 46 47 47 47 48 48 48 49 49 49 48 48 48 49 49 49 50 51 52 52 53 53 53 53 54 54 55 55 55
41 42 43 44 45 45 45 46 47 47 46 47 47 47 47 47 48 49 49 48 48 47 47 47 48 49 49 50 51 52 53 53 53 53 53 54 54 54
41 41 42 42 42 43 43 44 45 45 46 46 46 46 47 47 48 48 48 47 47 46 47 47 48 49 49 50 52 52 53 53 53 52 52 52 52 53
39 39 39 40 41 42 42 43 44 45 45 45 45 45 46 46 46 46 46 46 46 47 48 48 48 49 50 51 51 52 52 52 52 52 52 52 52 53
39 39 39 39 40 41 41 42 43 44 45 44 44 45 45 46 46 46 47 47 48 48 48 49 49 49 49 49 50 51 51 52 52 52 52 52 53 53
38 38 39 40 40 40 40 41 42 43 43 44 44 44 44 45 45 46 47 48 48 48 48 49 49 49 50 49 49 50 51 51 52 52 52 52 53 54
39 39 39 39 40 40 40 41 41 42 43 43 43 44 45 45 46 47 47 47 48 48 48 48 48 49 49 49 49 50 51 52 52 52 52 52 52 53
39 39 39 39 40 40 40 41 42 43 43 43 43 44 45 46 46 47 47 47 48 48 48 48 49 49 50 50 50 51 51 52 52 52 52 52 53 53
38 39 39 39 40 40 40 41 42 43 43 43 43 45 45 46 46 46 46 47 47 48 48 49 49 50 50 50 51 51 51 51 51 51 51 52 53 53
38 38 39 39 40 40 41 41 42 42 42 43 43 43 44 45 45 46 46 46 47 47 48 49 50 50 50 50 50 50 50 50 49 50 50 50 51 51
38 38 38 39 40 41 41 42 42 42 43 42 42 42 43 43 44 44 45 45 45 46 47 48 48 49 48 48 49 49 48 47 47 48 49 49 49 50
38 38 39 40 40 41 41 42 42 42 42 42 42 42 42 43 43 43 43 43 44 45 46 46 47 47 46 46 45 46 45 45 45 45 46 46 46 47
38 39 39 40 41 41 41 42 42 42 42 42 42 42 42 42 42 42 43 43 44 44 44 45 44 44 44 43 42 42 43 43 43 43 43 43 44 44
38 39 39 40 41 41 41 41 41 41 41 41 41 41 41 41 42 42 42 43 43 43 43 42 41 41 40 39 38 38 40 40 41 41 41 41 41 41
38 39 39 40 40 40 40 40 40 40 40 40 40 41 40 40 41 41 41 42 42 41 40 39 38 37 36 36 36 36 37 38 39 39 40 40 39 38
37 38 39 39 38 38 38 38 38 38 38 39 39 40 40 40 40 40 40 40 39 38 38 36 36 35 35 35 35 35 35 36 36 37 37 37 37 36

GEFSNE_500_meanwind_228.txt.gz
Wind_Speed
42 42 43 43 44 44 45 46 47 47 46 46 46 46 46 46 47 48 48 48 49 50 51 51 51 51 51 50 50 50 50 50 50 50 50 50 49 48
41 41 41 42 43 44 45 45 46 46 47 47 47 46 46 46 47 49 49 49 50 50 51 51 52 52 51 51 51 50 50 50 50 50 50 50 50 49
41 41 41 42 43 44 45 46 46 47 47 46 46 47 47 48 48 49 50 50 51 51 51 52 51 51 51 51 51 51 51 51 51 51 51 51 51 50
40 40 41 42 43 44 45 46 47 47 47 47 46 47 48 48 48 49 49 50 51 51 51 51 51 51 51 51 51 51 51 52 52 52 52 52 52 52
40 41 41 42 43 44 45 45 46 47 47 47 46 47 48 48 48 49 49 50 50 50 50 50 50 50 50 51 51 52 52 52 52 52 52 51 51 51
40 40 41 42 43 43 45 45 45 46 47 47 48 48 48 48 48 48 49 49 50 49 49 49 49 49 49 50 51 52 52 52 52 52 51 51 52 52
40 41 41 42 42 43 44 45 45 46 46 46 47 48 48 48 47 47 48 48 48 48 49 49 49 49 49 49 50 51 51 51 51 52 52 52 52 54
40 41 41 42 42 43 43 44 45 45 45 46 46 46 46 46 47 48 48 48 48 48 49 49 49 49 49 49 49 49 50 50 51 52 53 53 53 53
42 42 42 42 42 42 43 44 43 43 44 45 45 46 46 47 47 47 48 49 49 49 49 48 49 49 49 49 49 50 50 51 52 53 53 53 53 54
43 43 42 42 42 42 42 42 42 42 43 43 44 45 45 46 46 46 47 48 48 47 48 47 47 48 48 48 48 49 51 52 52 53 53 54 54 54
42 42 42 42 41 41 41 41 41 42 43 44 43 43 44 45 45 45 45 45 45 46 47 48 47 48 49 49 49 49 50 51 52 53 54 55 55 54
42 41 41 41 41 41 41 41 42 42 42 42 42 43 44 44 44 44 44 44 44 45 46 47 48 48 48 48 48 49 49 50 51 52 53 54 54 55
40 40 40 40 40 40 40 41 41 41 41 42 42 42 43 44 44 44 44 44 44 44 45 46 47 48 48 48 49 49 50 50 50 51 52 53 53 54
40 40 40 40 40 40 40 40 40 41 41 40 41 41 42 43 43 43 43 44 44 45 45 46 46 47 47 48 48 49 49 50 50 51 52 53 54 54
40 39 39 40 40 40 40 40 40 40 40 40 40 41 41 41 41 42 43 44 44 44 45 46 46 47 47 48 48 49 49 49 50 50 51 53 53 54
39 39 39 39 39 39 39 39 39 39 40 40 40 40 40 40 40 40 41 42 43 43 44 46 47 47 48 48 49 49 49 48 49 49 50 51 52 52
36 36 37 38 38 39 39 40 39 40 40 41 40 40 40 40 40 41 41 42 42 43 44 45 46 46 47 47 47 47 48 48 48 49 50 50 51 52
36 36 36 37 37 38 39 40 40 40 41 41 40 40 40 41 41 42 42 42 43 43 44 44 45 46 46 46 46 46 46 46 46 47 48 48 49 50
36 37 36 36 37 38 38 39 40 40 41 41 41 41 41 42 42 42 43 43 44 44 44 44 44 44 44 43 44 45 45 45 45 46 46 47 47 47
37 37 37 37 37 38 38 39 39 40 41 41 42 42 42 42 42 42 43 43 43 44 44 44 44 43 42 42 42 42 43 44 45 45 45 45 45 46
37 38 38 38 38 38 39 39 40 40 41 41 41 41 42 43 43 43 43 43 43 43 43 43 43 42 42 42 42 42 42 43 44 43 43 42 42 42
37 37 38 38 39 39 39 40 40 40 41 41 41 41 42 42 42 43 43 43 43 43 42 42 42 42 42 42 41 41 41 42 42 42 41 40 39 39
36 37 37 38 39 39 39 39 40 40 40 40 41 41 41 41 42 42 42 42 41 41 41 40 40 41 41 40 40 40 40 39 39 38 38 37 36 36

GEFSNE_500_meanwind_234.txt.gz
Wind_Speed
41 40 40 40 40 40 40 41 42 42 42 42 44 44 44 45 46 46 46 47 47 46 47 46 46 47 48 48 49 49 50 50 50 50 49 49 49 49
41 41 41 41 41 41 42 42 43 43 43 43 44 44 45 46 46 46 47 48 47 47 47 46 47 48 48 49 50 50 50 52 52 51 51 51 50 50
41 40 40 41 41 42 42 43 43 44 45 45 46 46 46 47 47 46 46 47 47 47 47 47 48 49 50 50 50 50 50 50 50 51 51 51 51 51
41 41 41 41 41 41 42 42 43 43 44 45 45 46 47 47 47 47 48 47 48 47 47 48 49 50 50 50 50 50 50 50 51 51 51 51 51 51
41 41 42 41 40 40 40 41 42 42 43 44 44 44 45 46 46 46 47 47 48 48 47 48 49 49 49 50 50 51 51 50 51 51 51 51 51 51
40 40 40 40 41 41 41 41 41 42 42 43 44 45 45 46 46 47 47 47 47 47 47 47 48 48 48 49 49 49 49 50 50 50 50 51 51 51
41 40 40 40 41 42 42 42 42 42 42 43 44 45 46 46 47 47 47 47 47 48 48 48 48 48 48 48 48 48 48 49 49 49 49 49 50 50
41 41 40 40 41 41 42 42 42 42 43 43 44 45 45 46 46 46 47 47 47 47 48 48 48 48 48 48 47 47 47 47 47 46 47 48 49 49
41 41 41 40 40 40 41 41 41 42 43 44 43 43 43 44 45 46 46 47 47 47 47 46 47 47 47 46 46 47 47 47 47 47 47 48 49 49
40 40 40 40 40 41 41 41 41 41 42 42 43 43 42 42 43 43 44 44 45 45 46 45 45 45 45 46 46 46 46 47 47 47 48 49 49 49
40 40 41 41 41 41 41 41 41 41 41 41 41 41 42 43 43 44 44 44 44 44 44 44 44 45 45 45 46 46 46 46 46 46 47 48 49 50
40 40 40 40 40 40 41 41 41 41 41 41 41 41 41 42 42 43 43 43 44 43 43 43 44 44 44 44 45 46 46 46 47 47 47 48 49 49
40 40 40 40 40 40 40 41 40 41 41 41 41 41 41 41 42 42 42 42 42 42 43 43 42 42 43 43 44 45 47 47 48 48 48 49 49 49
39 40 40 40 40 40 41 41 41 41 42 41 41 42 42 42 42 42 41 41 41 41 41 41 41 41 42 42 43 44 45 46 46 46 47 48 48 48
38 39 39 40 40 40 40 40 41 42 42 42 42 42 42 42 41 41 40 40 39 39 39 40 40 40 41 41 41 42 42 43 44 45 46 47 48 48
36 38 38 38 39 39 39 40 41 42 42 42 41 41 42 41 41 40 40 39 39 39 39 40 40 41 41 40 41 41 42 42 43 45 46 47 48 48
35 36 37 37 37 37 38 39 39 40 40 40 40 40 41 41 41 40 40 39 40 40 40 41 41 41 41 41 42 42 42 43 44 45 46 47 47 48
35 36 36 36 37 37 37 37 37 37 38 38 38 39 39 39 39 39 40 40 41 41 41 41 42 42 42 43 43 43 44 44 45 45 46 45 45 46
35 35 36 36 36 36 36 36 37 37 37 37 37 38 38 39 39 39 40 40 41 41 42 42 43 44 44 44 44 45 45 44 44 44 44 44 43 44
34 35 35 35 36 36 36 36 37 37 37 37 38 38 38 39 39 39 40 41 41 42 42 43 44 44 44 43 43 43 44 44 43 43 43 42 42 42
34 35 35 35 36 37 37 37 37 38 38 38 38 38 38 38 39 39 40 41 41 42 42 42 43 43 43 43 42 42 42 43 42 42 42 41 40 41
35 35 35 35 36 37 37 38 38 38 38 38 38 38 38 39 39 39 40 41 41 41 41 41 41 41 41 41 41 40 41 41 41 41 41 40 40 39
35 35 36 36 37 37 37 38 38 38 38 38 38 39 39 39 40 40 40 40 40 40 39 39 39 39 38 38 38 38 38 39 39 39 40 40 39 39

GEFSNE_500_meanwind_240.txt.gz
Wind_Speed
46 46 45 45 44 44 43 43 43 43 43 43 43 44 45 45 45 45 46 46 47 47 46 47 47 47 48 47 48 48 48 48 48 49 49 49 49 49
46 46 46 45 45 44 44 44 44 44 43 43 44 44 45 45 45 45 47 47 47 47 47 47 47 48 48 48 48 48 49 49 49 50 49 49 50 50
46 45 45 45 45 45 44 44 44 44 44 44 44 44 45 45 46 46 46 47 48 48 48 49 49 49 49 50 50 49 50 50 50 50 50 51 51 51
46 46 45 45 45 45 45 45 45 45 44 44 44 44 45 46 46 46 47 48 48 48 49 49 50 49 49 50 50 51 50 50 51 51 51 51 52 53
47 47 46 46 45 45 45 44 45 45 44 44 44 45 46 46 47 46 47 47 48 49 49 49 49 48 49 50 51 51 51 50 50 50 51 51 52 52
47 47 46 46 45 45 45 45 44 44 44 44 44 45 45 46 46 46 46 47 47 48 48 48 48 48 49 50 49 50 50 50 49 49 50 50 51 51
46 46 46 46 45 45 45 45 44 44 44 44 44 45 45 46 47 46 46 46 46 47 47 48 48 49 49 49 48 48 48 49 49 50 50 50 50 50
45 45 45 45 45 45 44 44 45 45 44 44 44 45 45 46 46 46 46 46 46 46 47 46 47 47 47 48 48 48 48 48 49 49 49 49 50 50
45 45 44 44 44 44 44 45 45 45 45 45 45 45 45 45 46 46 45 45 45 45 46 45 46 46 46 46 47 48 49 49 49 49 48 48 49 49
43 43 44 44 44 44 45 45 45 45 45 45 45 45 45 44 44 44 44 44 44 44 45 45 45 45 45 46 47 48 48 49 49 50 49 48 48 49
42 42 42 43 44 45 45 45 45 45 45 45 44 44 44 43 43 43 43 43 43 43 44 44 44 45 45 45 46 47 48 49 49 49 50 49 49 49
41 42 42 43 43 44 44 44 44 44 44 44 44 43 43 43 42 42 42 43 43 43 44 44 44 45 45 45 46 46 47 48 48 48 48 48 48 49
39 39 40 40 42 42 43 43 43 43 43 43 43 43 42 42 42 42 42 43 43 43 44 45 45 46 46 45 45 46 46 47 47 47 48 48 48 48
37 37 37 37 38 39 40 41 41 42 42 42 42 42 42 42 42 42 43 43 43 43 44 44 45 46 46 46 45 45 46 47 47 47 47 47 47 47
36 36 36 37 37 37 38 38 40 41 41 42 42 42 42 43 43 43 42 43 43 44 44 45 45 45 46 45 45 45 45 46 46 46 45 45 46 46
35 35 36 36 37 38 38 38 39 39 40 41 41 41 41 41 42 42 42 43 43 44 44 44 44 44 44 44 44 44 44 44 44 45 45 45 45 46
34 35 35 36 37 37 38 38 39 39 39 39 39 40 40 41 41 42 43 44 44 44 44 44 44 43 43 44 44 44 44 44 44 45 45 44 45 45
35 35 35 36 36 36 37 38 38 38 38 38 38 39 40 40 41 42 43 43 43 43 42 43 43 44 44 44 45 45 45 45 45 45 45 44 44 45
35 35 35 36 36 36 36 37 37 38 38 38 38 39 40 40 41 41 41 41 42 42 42 42 43 43 43 43 44 45 45 44 44 44 45 45 45 45
35 35 36 36 37 36 36 36 36 36 37 37 38 39 39 40 40 40 40 40 40 41 41 42 43 43 43 43 43 44 45 44 45 45 45 46 45 45
35 35 36 36 36 36 36 36 35 35 36 36 37 38 39 39 39 39 40 40 41 41 41 41 42 43 44 44 44 44 45 45 46 45 45 44 44 43
35 36 36 36 36 36 36 36 35 35 36 36 37 38 39 39 39 40 40 41 41 41 41 41 42 43 43 43 43 43 43 43 43 44 43 43 41 41
36 36 36 36 36 36 36 36 36 36 36 37 37 38 38 39 39 40 40 40 41 41 41 41 41 41 41 41 40 40 40 39 40 40 40 40 40 40

GEFSNE_500_meanwind_246.txt.gz
Wind_Speed
51 50 49 48 48 47 47 46 45 45 45 45 44 44 43 43 43 43 42 43 43 44 44 44 44 44 45 45 45 45 45 45 46 46 46 46 46 46
51 50 49 49 49 48 48 47 47 46 45 45 45 44 44 44 44 44 44 44 44 44 44 45 45 45 46 46 46 47 47 46 46 47 47 47 48 47
52 52 51 50 50 50 49 48 48 47 46 45 45 45 46 45 45 45 46 45 45 45 45 46 47 48 48 48 47 47 48 47 47 48 49 49 48 48
53 53 52 51 50 50 49 49 49 48 47 46 46 46 46 46 46 46 46 45 45 46 47 47 48 49 49 49 48 48 48 49 49 49 49 49 49 48
53 53 53 52 51 50 50 50 50 49 48 48 46 46 46 46 46 46 46 46 46 47 47 48 49 49 49 49 49 49 49 50 50 49 49 49 48 47
53 53 53 53 52 51 50 50 49 49 49 48 48 47 46 46 46 46 46 46 47 47 47 48 48 49 50 50 50 50 49 49 48 48 48 48 48 47
53 53 53 53 53 51 50 50 50 50 49 48 48 48 48 48 47 47 47 47 47 47 47 48 49 49 50 50 49 49 49 49 48 47 47 47 47 47
52 52 52 52 51 52 51 50 49 48 48 48 48 49 49 49 48 48 48 48 48 48 48 48 48 48 48 48 48 48 48 48 47 46 46 46 47 47
50 50 49 49 49 49 49 49 48 48 47 47 47 48 48 48 48 48 49 48 48 48 48 47 47 47 48 47 46 46 46 47 47 47 47 48 48 48
45 47 47 46 46 46 46 47 48 48 48 48 47 48 48 49 49 49 49 48 48 48 48 47 47 47 47 46 45 45 45 45 46 47 48 48 48 49
43 44 45 45 45 45 45 46 46 47 47 47 47 47 47 48 49 49 49 49 48 48 48 48 47 47 46 46 46 46 46 45 46 46 47 47 48 48
42 42 43 43 43 44 44 44 44 45 45 46 46 46 46 47 47 47 47 48 48 48 48 48 47 47 46 45 44 45 45 45 45 45 46 47 47 47
40 41 41 42 42 43 43 43 43 43 44 44 44 45 45 46 46 46 47 47 47 47 47 47 46 46 46 45 45 44 44 44 45 45 45 46 47 48
38 39 39 40 41 41 41 42 41 41 42 43 43 43 43 43 44 44 45 46 46 46 45 45 45 45 45 45 44 45 45 45 45 45 46 47 47 48
37 37 37 38 39 39 40 40 40 40 41 41 41 42 42 42 42 42 43 44 45 45 45 44 44 44 44 44 44 44 45 45 45 46 47 47 47 48
37 37 37 37 38 38 38 38 39 39 39 40 40 41 41 42 42 43 43 44 44 43 43 43 43 43 43 44 44 45 45 46 46 46 46 47 47 48
35 36 36 36 36 37 38 38 38 39 39 39 39 40 41 41 42 43 43 43 42 42 42 42 42 43 43 44 44 45 45 46 46 47 47 47 48 48
34 34 35 35 36 36 37 38 38 39 39 40 40 40 41 41 42 41 41 41 41 41 41 41 42 42 43 43 44 45 45 45 46 47 47 47 47 48
33 34 35 36 36 36 36 36 37 38 38 38 39 39 40 40 40 40 40 40 40 41 41 41 41 42 43 43 43 44 44 45 46 46 47 47 48 48
32 33 34 35 35 36 36 36 36 37 38 38 38 38 38 38 38 39 40 40 40 40 41 41 42 42 43 43 43 43 45 46 46 47 47 47 46 46
32 33 33 34 35 35 36 37 37 37 37 37 37 37 38 38 39 39 39 40 40 40 41 41 42 43 43 44 44 45 46 47 47 46 46 45 44 43
32 32 33 34 34 35 36 37 37 36 36 36 36 37 38 38 39 39 39 39 40 40 41 41 42 43 43 44 45 45 45 45 45 45 44 43 42 40
32 33 34 34 34 35 35 35 35 35 35 35 36 36 37 38 38 39 39 40 40 40 41 41 42 42 43 43 43 43 43 43 42 42 42 42 40 39